Regional Weather Roundup
Issued by NWS Green Bay, WI

Home | Current Version | Previous Version | Graphics & Text | Print | Product List | Glossary Off
Versions: 1 2 3 4 5 6 7 8 9 10 11 12 13 14 15 16 17 18 19 20 21 22 23 24 25 26 27 28 29 30 31 32 33 34 35 36 37 38 39 40 41 42 43 44 45 46 47 48 49 50

000
ASUS43 KGRB 190011
RWRGRB

NORTH-CENTRAL AND NORTHEAST WISCONSIN REGIONAL WEATHER ROUNDUP
NATIONAL WEATHER SERVICE GREEN BAY WI
600 PM CST SUN FEB 18 2018

WIZ005-009-010>012-018-019-190100-
NORTH CENTRAL WISCONSIN

CITY           SKY/WX    TMP DP  RH WIND       PRES   REMARKS
IRONWOOD       CLOUDY    35  22  58 SW5       29.68R
MANITOWISH WTR CLOUDY    33  23  68 S14G20    29.67F
ARBOR VITAE    CLOUDY    37  26  66 S16G23    29.69S
EAGLE RIVER    MOCLDY    32  21  63 S10G16    29.70F
LAND O LAKES   CLOUDY    32  22  66 S10       29.71F
RHINELANDER    CLOUDY    34  23  64 S12       29.72F
PHILLIPS       CLOUDY    35  24  64 S13G21    29.68S
ANTIGO         FAIR      30  22  74 S15       29.78S
TOMAHAWK       FAIR      32  22  66 S8        29.72S
MERRILL        FAIR      33  23  65 S10G17    29.76S
$$

WIZ013-073-190100-
NORTHEAST WISCONSIN

CITY           SKY/WX    TMP DP  RH WIND       PRES   REMARKS
IRON MOUNTAIN  MOCLDY    31  24  75 S15G21    29.79S
MARINETTE      CLOUDY    32  27  81 S13G22    29.86F
OCONTO         CLOUDY    32  27  81 S10G18    29.84F
$$

WIZ017-030-035>037-045-190100-
CENTRAL WISCONSIN

CITY           SKY/WX    TMP DP  RH WIND       PRES   REMARKS
MEDFORD        FAIR      32  23  69 S14       29.72S
WAUSAU         FAIR      32  23  69 S13       29.76F
MOSINEE        MOCLDY    32  25  74 S16       29.78F
MARSHFIELD     FAIR      33  24  69 S14       29.74S
WISC RAPIDS    CLOUDY    35  22  58 S7        29.80R
STEVENS POINT  MOCLDY    32  23  69 S7        29.81R
WAUPACA        CLOUDY    37  24  59 S13G20    29.81S
SHAWANO        CLOUDY    37  24  58 S7        29.82S
CLINTONVILLE   CLOUDY    35  24  62 S10G18    29.82R
WAUTOMA        CLOUDY    34  23  64 S15G23    29.80
$$

WIZ038-039-048-051-190100-
FOX VALLEY

CITY           SKY/WX    TMP DP  RH WIND       PRES   REMARKS
NWS GREEN BAY  CLOUDY    33  25  72 S20       29.84F
APPLETON       MOCLDY    34  21  60 SE17      29.81F
OSHKOSH        CLOUDY    36  24  62 S18G26    29.81F
FOND DU LAC    CLOUDY    35  23  61 SE18G28   29.84F
$$

WIZ022-050-052-190100-
EAST CENTRAL WISCONSIN

CITY           SKY/WX    TMP DP  RH WIND       PRES   REMARKS
EPHRAIM        CLOUDY    32  27  83 S24G35    29.84F
WASHINGTON ISL CLOUDY    33  26  77 S16G26    29.87S
STURGEON BAY   CLOUDY    33  28  81 S30G37    29.84F
MANITOWOC      CLOUDY    33  28  81 S21G38    29.90F
SHEBOYGAN      CLOUDY    32  29  88 S20G36    29.90F
$$

LMZ563-521-522-541>543-190100-
LAKESHORE

STATION/POSITION TIME  TEMP    WIND        PRES    VSBY  WAVE
                       AIR SEA DIR/SP/G                  HT/PER
                 (UTC) (F)     (DEG/KT/KT) (MB)    (MI)  (FT/S)
SHEBOYGAN LKSHOR 0000   34     170/ 34/ 37 1013.0F
KEWAUNEE LKSHORE 2342   33     170/ 29/ 37 1011.8F
NORTHPORT PIER   2340   34                 1011.2F
MENOMINEE LKSHOR 2336   31     360/ 16/ 27 1010.9F
$$




USA.gov is the U.S. government's official web portal to all federal, state and local government web resources and services.